Theta_e
310 310 311 312 313 315 317 318 318 318 317 317 317 316 315 314 314 315 317 321 323 323 323 323 322 321 320 319 320 320 321 322 324 325 325 325 325 326 326 327 328 329 329 330 330 330 330 330 331 330 330 330 329 328 327 327 326 326 327 328 329 331 331 330 329 328 327 327 327 327 326 325 323 321 318 316 314 313 312 312 311 311 311 311 311 310
309 310 310 311 312 313 315 317 318 318 317 317 317 316 315 315 314 315 317 321 322 322 323 323 324 323 322 322 322 322 322 323 324 324 325 325 325 325 326 327 327 328 328 329 329 330 330 330 330 330 330 329 328 328 327 327 327 328 329 330 330 330 330 328 327 326 326 326 326 326 325 323 321 318 316 315 313 311 310 310 310 310 310 310 310 309
308 309 309 309 310 312 314 315 317 318 317 317 317 316 315 314 314 314 316 320 321 321 322 322 323 324 324 324 323 324 324 324 324 324 325 325 325 325 326 326 326 326 327 328 328 329 328 329 329 330 330 329 328 328 328 328 329 329 329 330 330 330 328 326 325 325 325 325 324 323 322 320 318 316 314 313 311 310 309 309 309 309 309 309 308 308
308 309 309 309 309 310 312 314 316 317 317 317 317 316 315 315 314 314 315 319 320 320 321 322 322 322 323 323 323 324 324 324 324 325 325 326 326 326 326 326 326 326 326 326 327 327 327 328 328 328 328 329 328 328 328 328 328 328 327 328 328 328 326 325 325 325 324 322 320 318 316 315 314 313 312 311 310 308 308 308 308 308 308 307 307 306
307 308 309 309 309 309 310 313 315 316 317 317 316 316 316 315 315 314 315 318 319 319 320 320 320 321 322 322 322 323 323 324 324 325 325 325 325 325 325 326 326 325 325 325 326 326 327 327 327 327 327 327 326 326 327 326 326 326 326 326 326 326 325 324 323 322 320 318 315 313 312 312 311 310 309 308 308 307 307 307 307 307 306 306 305 305
307 308 309 309 309 309 309 312 314 316 316 316 316 316 316 316 315 315 314 317 318 318 318 319 319 320 321 321 321 321 321 322 323 323 324 324 324 324 325 325 325 325 325 325 326 326 326 326 326 326 326 325 325 325 325 325 325 325 325 325 324 323 322 321 319 317 315 314 312 311 310 309 308 308 307 307 306 306 306 305 305 306 305 305 304 304
307 308 309 309 309 309 309 311 313 314 316 316 316 316 316 316 316 315 315 316 317 317 317 317 318 318 319 320 320 320 320 320 320 321 321 321 322 322 323 324 324 324 324 324 325 325 325 325 325 326 325 324 324 323 323 324 323 322 321 320 319 318 316 315 314 313 312 311 310 309 308 308 307 307 306 306 306 305 305 305 305 304 304 304 303 303
307 308 308 309 309 309 309 310 312 314 315 316 316 316 316 316 316 316 316 316 317 317 316 316 316 316 317 317 318 318 318 318 318 318 318 318 319 319 320 321 322 322 322 323 323 323 323 323 323 323 324 323 322 322 321 321 320 318 316 314 313 312 311 311 311 310 310 309 308 308 307 306 306 306 305 305 305 304 304 304 303 303 303 302 302 302
307 308 308 309 309 309 309 310 311 313 314 315 316 316 315 316 316 316 316 316 316 316 316 316 315 315 314 314 315 315 315 315 315 315 315 315 315 315 315 316 317 318 319 320 321 321 321 321 320 320 320 320 319 319 318 317 316 314 312 310 309 309 308 308 308 308 307 307 306 306 305 305 305 304 304 304 304 303 303 303 302 302 302 301 301 301
307 308 308 309 309 309 309 310 311 312 314 314 315 315 315 315 316 316 316 316 316 316 315 315 315 314 313 313 313 313 312 312 312 312 312 312 311 311 311 312 312 313 314 316 317 318 318 318 317 317 316 316 315 315 314 313 312 311 309 308 308 307 307 307 307 306 306 306 305 305 304 304 304 303 303 303 303 302 302 302 301 301 300 300 300 300
308 308 308 308 309 309 309 309 310 312 314 314 314 315 315 315 315 316 316 316 316 315 315 315 314 314 313 313 313 313 312 312 311 310 310 309 309 309 309 309 309 309 310 310 312 313 314 315 315 314 314 313 313 312 312 311 310 309 309 308 308 308 307 307 307 307 307 306 306 306 305 304 304 303 303 302 302 302 301 301 300 300 300 300 300 300
308 308 307 308 309 309 309 309 310 312 313 314 314 314 315 315 315 315 316 316 316 315 315 314 313 313 312 313 313 313 313 312 312 311 311 310 309 308 308 308 308 308 307 308 308 309 309 311 312 312 312 312 312 312 311 311 310 310 310 309 309 309 309 308 308 308 308 307 307 307 306 305 304 303 302 302 301 301 301 300 300 300 300 300 300 300
307 307 307 308 308 309 310 310 310 311 313 313 313 314 314 315 315 315 315 315 315 314 314 313 313 312 312 312 312 312 312 312 312 312 312 311 310 309 309 309 308 308 308 307 307 306 307 307 308 309 310 311 311 312 311 311 311 311 310 310 310 310 309 309 309 308 307 307 306 306 305 304 303 302 301 301 301 301 301 300 300 300 300 300 300 300
307 307 307 308 309 309 310 310 310 311 312 313 313 313 313 314 314 314 314 314 314 314 313 312 312 312 311 311 311 311 311 311 311 312 312 311 311 310 309 309 309 309 308 307 306 306 306 306 306 306 307 307 308 309 309 310 310 310 310 310 309 309 309 308 307 306 305 304 304 303 303 302 302 301 301 301 301 300 301 300 300 300 300 300 300 300
306 306 307 308 309 309 310 310 310 310 311 312 312 313 313 313 314 314 314 313 313 313 312 311 311 311 310 310 310 310 310 310 310 310 311 311 310 309 309 309 309 309 308 308 307 307 306 306 305 305 305 305 305 305 306 306 307 307 308 308 308 307 307 306 305 304 303 302 301 301 301 301 301 301 300 301 301 301 301 301 301 301 301 301 301 301
306 307 307 308 309 309 310 310 310 310 311 312 312 312 313 313 313 313 313 313 312 312 312 311 311 310 310 310 310 309 309 309 309 309 309 310 309 309 308 309 309 309 308 308 309 309 308 307 306 306 305 304 304 304 304 304 304 304 305 305 305 305 305 304 304 303 301 301 300 300 300 301 301 301 301 301 301 301 301 301 301 301 301 301 301 301
306 307 308 308 309 309 310 310 310 311 311 312 312 312 313 313 313 313 313 312 312 312 311 311 310 310 310 310 310 309 309 308 308 308 309 309 309 309 308 308 309 309 309 309 309 309 309 308 308 307 306 305 304 303 303 302 302 303 303 303 303 303 303 302 302 301 301 300 300 300 300 301 301 301 301 301 301 301 301 302 301 301 301 301 301 300
304 305 305 306 308 309 309 310 311 311 312 312 312 312 312 313 313 313 312 312 311 311 311 310 310 310 310 310 310 309 308 308 308 308 308 309 309 309 309 308 309 309 309 308 308 308 308 308 307 306 306 305 304 304 303 303 302 302 302 302 302 301 301 301 301 301 301 301 301 301 301 301 301 301 301 301 301 301 301 301 301 301 301 301 300 300
300 301 302 304 305 306 307 308 309 311 312 313 312 311 312 312 313 313 312 311 311 311 311 310 310 310 310 310 310 309 308 308 308 308 308 309 309 309 308 308 308 308 308 308 307 307 306 306 305 305 304 304 304 303 303 303 302 301 301 301 301 301 301 300 300 301 301 301 301 301 301 301 301 301 301 301 301 301 301 301 301 301 301 301 300 300
295 298 300 300 302 304 306 307 309 310 312 313 313 312 311 312 312 312 311 311 311 311 311 311 310 310 310 310 309 309 308 307 307 307 307 308 308 308 308 308 308 308 307 306 306 305 305 304 303 302 302 302 302 302 302 302 302 301 301 300 300 300 300 301 301 301 301 301 301 301 301 301 301 301 301 301 301 301 301 301 301 301 301 301 301 301
291 294 296 297 299 301 303 305 308 310 311 312 312 312 311 312 311 311 310 310 311 311 311 311 310 310 310 309 309 308 308 307 306 307 307 308 308 308 307 307 307 306 306 306 305 305 304 303 302 302 301 301 301 301 301 301 301 300 300 300 300 300 300 301 301 302 302 302 302 302 302 302 302 302 301 301 301 301 301 301 301 301 301 301 301 301
289 290 292 294 296 297 299 304 307 310 311 312 312 311 311 311 311 309 309 309 310 310 310 310 310 310 309 309 309 308 307 307 306 306 307 307 308 308 307 307 306 306 306 306 305 305 303 303 302 301 301 301 301 301 300 300 300 300 300 300 300 301 301 301 302 302 302 302 302 302 302 302 302 302 302 301 301 301 301 301 301 301 301 301 301 301
288 288 289 291 293 295 297 302 306 309 310 311 311 311 311 311 310 309 309 309 310 310 310 310 310 309 309 309 308 308 307 306 306 306 306 307 308 308 307 306 306 306 307 306 306 305 304 303 302 302 301 301 301 301 301 300 300 300 300 301 301 301 301 302 302 302 302 303 303 302 302 302 302 302 302 302 302 302 301 301 301 301 301 301 301 301
289 288 288 289 290 292 295 300 305 308 309 310 310 311 311 310 309 309 309 309 310 310 310 309 309 309 309 308 308 308 307 307 306 306 306 307 307 307 307 306 306 306 307 306 306 305 305 304 303 302 302 301 301 301 301 301 301 301 301 301 301 302 302 302 303 303 303 303 303 303 303 303 302 302 302 302 302 302 302 302 302 301 301 301 301 302
289 289 288 288 288 290 293 299 304 307 308 309 310 310 310 309 309 309 310 310 310 310 309 309 309 309 309 308 308 307 307 306 306 306 306 306 307 307 307 306 306 306 306 306 306 305 305 304 304 303 303 302 302 301 301 301 301 301 301 301 302 302 302 303 303 303 303 303 303 303 303 303 303 303 303 302 302 302 302 302 302 302 302 302 302 302
289 289 289 289 289 291 293 298 302 305 307 308 309 309 309 308 308 309 310 311 310 310 310 309 309 308 308 308 308 307 307 306 306 305 305 306 306 306 306 306 306 306 306 306 306 305 305 305 305 304 304 303 302 302 301 301 301 301 302 302 302 303 303 303 303 303 303 303 303 303 303 303 303 303 303 303 303 302 302 302 302 302 302 302 302 302
289 290 290 291 292 293 295 298 301 304 306 308 308 308 307 306 307 307 308 309 309 310 310 309 308 308 308 308 307 307 306 306 305 305 305 305 305 305 305 305 305 305 306 306 306 306 305 305 305 305 304 304 303 302 302 302 302 302 302 302 303 303 303 303 303 303 303 303 303 303 303 303 303 303 303 303 303 303 303 302 303 303 303 303 303 303
290 291 291 292 293 295 297 299 301 303 305 306 307 307 306 306 306 306 306 307 308 309 310 309 308 308 308 307 307 306 306 306 305 305 304 305 305 305 305 305 305 305 305 306 306 306 305 305 305 305 305 304 304 303 302 302 302 303 303 303 303 303 303 304 304 304 304 304 304 303 303 303 303 303 303 303 303 303 303 303 303 303 303 303 303 303
291 292 292 293 294 295 297 299 300 301 302 303 304 305 305 306 306 306 305 306 307 308 309 309 309 308 307 307 306 306 306 306 305 305 304 305 304 304 304 304 305 305 305 305 305 305 305 305 305 305 305 305 304 303 303 303 303 303 303 303 303 304 304 304 304 304 304 304 304 304 303 303 303 303 303 303 303 303 303 303 303 303 303 303 303 303
291 292 293 293 294 296 297 298 299 300 300 301 302 303 304 305 306 306 305 305 306 307 308 308 309 308 307 306 306 305 305 305 304 304 304 304 304 304 304 304 304 304 304 304 304 304 304 304 305 305 305 305 304 304 303 303 303 303 303 303 303 304 304 304 304 304 304 304 304 304 303 303 303 303 303 303 303 303 303 303 303 303 303 303 303 303
290 291 292 293 294 295 296 297 298 299 300 300 301 302 303 305 305 306 306 306 306 306 306 307 307 307 307 306 305 303 302 303 303 304 304 304 303 304 304 304 304 304 304 304 303 302 301 302 303 304 304 304 304 303 303 303 303 303 303 303 303 304 304 304 304 304 304 304 304 304 303 303 303 303 303 303 303 303 303 303 303 303 303 303 303 303
289 289 290 291 292 294 295 296 297 298 298 299 300 301 302 303 304 305 305 305 305 305 305 305 305 305 305 305 304 303 301 302 303 304 304 303 303 303 304 304 303 303 303 303 303 301 300 300 301 302 302 303 303 303 303 303 303 303 303 303 304 304 304 304 304 304 304 304 304 303 303 303 303 303 303 303 302 303 302 302 302 302 302 302 302 303
288 289 289 290 291 292 292 293 294 295 296 297 298 300 301 301 302 303 303 304 304 304 303 303 303 303 304 304 304 303 302 302 303 303 303 303 303 303 303 303 303 303 303 302 302 302 301 300 300 301 301 301 301 302 302 302 302 303 303 303 304 304 304 304 304 304 304 304 303 303 303 303 302 302 302 302 302 302 302 302 302 302 302 302 302 302
288 288 289 289 289 290 290 291 292 292 293 294 295 296 298 299 300 301 302 302 303 303 303 303 303 303 303 303 303 303 302 302 302 302 303 303 302 302 303 303 303 303 302 302 301 301 301 300 300 300 299 300 300 301 301 301 302 302 302 303 304 304 304 304 304 304 304 304 303 303 303 302 302 302 302 302 302 302 302 302 302 302 302 302 302 302
287 288 288 289 289 289 289 289 290 290 291 291 292 293 294 296 297 299 300 300 301 302 302 302 302 302 303 303 303 302 302 301 301 302 302 302 302 302 302 302 303 303 302 302 301 300 300 300 300 299 299 299 299 299 300 301 301 302 302 303 303 304 304 304 304 304 303 303 303 303 302 302 302 302 302 302 302 302 302 302 302 302 302 302 302 302
286 286 287 288 288 289 289 289 289 289 289 289 289 290 291 292 293 295 296 297 298 299 300 301 301 302 302 302 303 302 301 301 301 301 302 302 302 302 302 302 302 303 303 302 301 301 300 299 299 299 298 298 298 298 299 300 301 301 302 302 302 303 303 303 303 303 303 303 302 302 302 302 302 302 301 301 302 302 302 302 302 302 302 302 302 302
284 284 285 286 287 287 288 288 288 288 288 288 288 288 289 289 290 291 292 294 295 296 298 299 300 300 301 301 302 302 302 301 301 301 301 302 302 303 302 302 302 302 302 302 302 301 300 299 298 298 298 298 298 298 298 299 300 301 301 301 301 302 302 302 302 302 302 302 302 302 301 301 301 300 300 300 301 301 301 301 301 301 302 302 302 302
282 283 283 284 285 285 286 287 287 287 288 288 288 288 288 288 288 289 290 291 292 294 295 296 297 298 299 300 301 301 301 301 301 301 301 301 302 302 302 302 301 301 301 301 302 302 301 300 298 297 297 297 298 298 298 299 299 300 300 300 300 301 301 301 301 301 302 301 301 301 301 300 300 300 299 300 300 300 301 301 301 301 301 301 302 301
281 281 281 282 283 283 284 284 285 286 286 287 287 287 288 288 288 288 289 290 291 292 293 294 295 296 297 298 299 300 300 300 300 300 301 301 301 301 301 301 301 300 300 300 301 301 301 301 300 298 297 297 297 298 298 299 299 299 299 299 299 300 300 300 300 301 301 301 300 300 299 299 299 299 299 299 300 300 301 301 301 301 301 301 301 301
279 279 280 280 281 281 282 282 283 284 285 286 286 287 288 288 288 288 288 289 289 290 291 292 293 294 295 296 297 298 299 299 299 299 300 300 301 301 301 300 300 299 299 299 299 300 300 300 300 300 300 299 299 298 298 298 298 298 298 298 298 298 298 299 299 299 299 299 299 299 298 298 298 298 299 299 300 300 301 301 301 301 301 300 300 300
278 278 279 279 279 280 280 281 281 282 283 284 285 287 287 288 288 288 288 288 288 289 289 290 291 292 293 294 295 296 297 297 297 297 298 298 299 299 300 300 299 299 299 299 299 299 299 299 299 299 299 300 299 299 298 297 297 297 297 298 298 298 298 298 298 298 298 298 298 298 298 298 298 299 299 300 300 300 300 300 300 300 300 299 299 299
278 278 278 278 279 279 279 280 281 281 282 283 284 285 286 286 287 287 287 288 288 288 288 289 290 291 292 293 294 294 295 295 295 296 296 296 297 297 298 298 298 298 298 298 298 298 298 298 299 299 299 299 298 297 297 296 296 296 296 297 297 298 298 297 297 297 297 297 297 297 298 298 298 299 299 300 300 300 299 299 299 299 299 298 298 298
277 277 277 278 278 278 279 280 280 281 281 282 282 283 284 285 285 286 286 287 287 288 288 288 289 290 291 291 292 293 293 294 294 294 294 295 295 295 296 296 296 296 297 297 297 297 297 298 298 298 298 298 297 297 296 295 295 295 295 296 296 296 296 296 296 296 296 297 297 297 298 298 298 299 299 299 299 298 298 298 298 298 298 298 297 297
277 277 277 277 278 278 279 279 280 280 280 281 281 281 282 283 283 284 285 285 286 287 287 287 288 289 290 290 290 291 292 292 293 293 294 294 294 294 295 295 295 295 295 295 296 296 296 296 296 296 296 296 296 296 295 295 295 294 294 294 294 295 295 295 295 295 296 296 296 297 297 297 298 298 298 298 298 298 298 297 297 297 297 297 297 297
277 277 277 277 278 278 278 279 279 279 279 280 280 280 280 281 282 282 283 283 284 285 286 287 288 289 289 288 289 289 290 291 291 292 292 293 293 293 294 294 294 294 294 294 294 294 294 294 293 293 294 294 294 294 294 294 294 294 294 293 293 294 294 294 294 294 295 295 295 296 296 296 297 297 297 297 297 297 297 297 297 297 296 296 296 296
277 277 277 277 278 278 278 278 278 279 279 279 279 280 280 280 280 281 281 282 282 283 284 285 287 288 288 287 287 288 289 289 290 291 291 291 292 292 293 293 293 293 293 293 293 293 293 293 292 292 292 292 292 293 293 294 294 293 293 293 293 293 293 293 293 293 294 294 295 295 295 296 296 296 296 296 296 296 296 296 296 296 296 296 296 296
277 277 277 277 277 277 277 278 278 278 278 279 279 279 279 280 280 280 280 281 281 281 282 283 285 285 285 285 286 287 288 288 289 289 290 290 290 291 291 292 292 292 293 293 293 293 293 292 292 292 292 292 291 291 292 292 292 293 292 292 292 292 292 293 293 293 294 294 294 294 295 295 295 295 295 295 295 295 295 295 295 295 295 295 295 295
277 277 277 277 277 277 277 278 278 278 278 278 278 279 279 279 279 280 280 280 280 280 281 282 282 283 283 283 284 284 285 286 287 288 288 289 289 289 290 290 291 291 291 291 292 292 292 292 291 291 291 291 291 291 291 291 291 291 292 292 292 292 292 292 293 293 293 294 294 294 294 294 294 294 294 294 294 294 294 294 294 294 294 294 294 294
276 276 277 277 277 277 277 277 278 278 278 278 278 278 278 279 279 279 279 280 280 280 280 281 281 281 281 281 281 282 283 284 285 286 286 287 287 288 288 289 289 289 290 290 290 290 290 291 291 290 290 290 290 290 290 290 290 290 291 291 291 291 292 292 292 292 293 293 293 293 293 293 293 293 293 293 293 293 293 293 293 293 293 294 294 293
276 276 276 276 277 277 277 277 277 277 278 278 278 278 278 278 279 279 279 279 280 280 280 280 280 280 280 280 280 280 281 281 282 283 284 285 285 286 286 287 287 288 288 289 289 289 289 289 289 289 289 289 289 289 289 289 289 289 289 290 290 290 291 291 291 291 292 292 292 293 293 292 292 292 292 292 292 292 292 292 292 292 292 293 293 293
275 275 275 276 276 276 276 277 277 277 277 277 277 278 278 278 278 278 279 279 279 279 279 279 280 280 280 280 280 280 280 280 280 281 281 282 283 283 284 285 285 286 287 287 287 287 288 288 288 288 288 288 288 288 288 288 288 288 288 288 289 289 290 290 290 291 291 291 292 291 291 291 290 290 290 290 290 290 290 290 290 290 290 291 291 291
Wind_Speed
28 29 31 29 25 20 18 20 23 25 25 25 26 27 27 27 26 25 24 23 23 22 23 25 27 28 28 28 28 30 31 32 33 33 33 33 33 32 32 32 32 33 34 36 38 39 39 40 41 43 43 42 40 38 37 37 37 36 36 36 36 36 35 33 32 32 34 35 37 38 38 35 33 31 30 28 25 22 20 19 19 19 19 19 19 19
27 29 32 33 29 24 20 18 21 24 25 25 26 27 27 27 27 25 23 22 21 21 21 23 24 24 25 25 26 27 29 30 31 31 31 32 32 32 32 31 31 30 30 31 33 34 34 34 36 38 39 38 37 37 36 36 36 37 37 37 37 36 34 32 33 35 37 37 37 35 34 32 30 29 29 28 26 23 20 20 20 20 20 20 20 20
26 29 33 35 34 29 24 19 19 23 25 25 25 26 27 28 27 26 23 21 20 21 21 22 23 23 24 24 24 25 27 28 29 30 30 31 31 31 31 31 30 29 29 29 30 30 30 30 31 33 34 34 35 35 35 35 35 35 36 37 37 36 34 33 34 37 37 35 33 30 28 27 27 27 27 26 25 23 21 20 20 20 21 20 20 20
26 28 31 34 35 33 28 22 18 20 24 25 25 25 26 26 27 26 24 21 20 21 22 23 23 24 25 24 24 24 25 26 27 28 29 29 29 29 30 30 30 30 30 30 30 30 30 30 30 30 31 31 32 33 34 34 34 34 34 35 35 35 34 35 36 36 33 30 26 24 23 23 24 24 24 24 23 22 21 20 20 21 21 21 21 20
27 27 27 30 33 35 32 26 20 18 21 25 26 25 24 24 25 26 25 22 19 19 21 22 23 24 25 26 26 25 25 26 26 27 28 28 29 29 30 30 30 31 31 32 33 33 33 32 32 31 30 30 30 31 32 32 33 34 34 34 35 35 35 34 33 31 28 25 23 22 22 22 22 21 21 21 21 21 21 21 21 21 21 21 21 20
27 26 26 28 31 34 34 30 24 19 20 24 26 27 25 23 24 25 27 24 20 18 18 20 23 25 26 27 27 26 25 26 26 26 27 27 28 29 31 31 32 33 33 34 35 36 36 34 33 33 32 32 32 32 33 33 34 34 34 33 33 33 32 30 28 27 25 24 23 23 22 22 21 21 21 21 21 21 21 22 22 22 21 21 21 20
27 27 27 28 31 33 34 32 27 22 21 23 26 27 25 24 24 25 27 27 24 19 17 18 20 23 26 27 28 27 27 26 25 25 26 26 26 27 29 31 32 33 34 35 36 35 35 33 33 34 34 34 34 34 35 35 35 34 32 32 31 30 28 26 25 25 25 24 24 23 23 22 22 22 22 22 22 22 22 22 22 22 22 21 20 20
27 28 29 29 30 32 33 33 30 25 22 22 24 27 26 26 26 26 26 27 27 23 20 18 18 19 22 25 26 26 25 24 23 23 24 23 22 23 24 26 29 30 32 33 34 34 33 33 33 34 35 34 35 35 35 35 35 33 31 30 29 28 26 25 25 25 25 25 24 23 23 22 22 22 22 22 22 22 22 22 22 22 21 20 20 19
28 28 30 30 30 31 32 34 33 29 24 22 24 27 29 28 28 27 26 27 27 26 24 21 19 19 20 21 22 22 22 20 19 19 20 19 18 18 18 19 21 24 25 27 30 31 31 32 32 32 33 32 32 32 32 33 33 31 29 28 27 26 26 26 26 26 26 25 24 23 23 22 22 22 22 22 22 21 21 21 21 21 20 20 19 19
29 28 29 29 30 31 32 34 34 31 26 23 24 28 31 32 31 30 28 27 27 27 27 25 23 22 21 21 21 20 20 19 18 17 17 17 17 16 15 15 15 16 17 18 21 24 26 28 30 30 30 30 29 29 29 29 29 29 28 27 27 26 26 26 26 26 26 25 25 24 23 22 22 22 21 21 20 20 20 20 20 20 19 19 18 18
28 28 28 28 30 32 34 35 35 33 28 25 24 26 31 34 35 33 31 29 28 29 30 29 27 25 24 23 22 22 21 20 20 19 18 18 17 17 16 15 13 12 11 11 13 15 18 21 24 27 28 28 28 28 27 27 27 28 28 27 27 27 26 26 25 25 25 25 24 24 22 21 21 20 19 19 18 18 18 18 18 18 18 18 17 16
29 29 30 29 29 31 34 36 36 34 30 28 26 26 29 33 36 36 34 31 30 31 32 31 30 29 28 26 25 24 23 23 22 22 22 21 20 19 19 18 17 15 14 12 11 10 11 14 17 20 23 25 26 27 27 27 27 27 27 27 27 26 26 25 24 23 23 23 22 22 21 20 19 18 18 17 17 17 18 18 18 17 17 17 16 15
31 31 31 31 31 32 35 36 37 37 34 32 31 30 29 32 34 35 35 34 33 33 33 33 32 31 30 29 28 26 25 24 24 24 23 23 23 23 22 22 21 21 20 19 16 14 12 11 12 13 16 18 21 23 24 25 25 26 26 25 25 24 24 23 22 21 20 20 20 20 19 19 18 18 18 18 18 18 18 18 17 17 16 16 15 14
32 32 31 31 32 33 36 37 39 39 38 35 33 32 30 30 31 33 33 33 34 35 35 35 34 33 32 30 29 27 26 25 25 24 24 24 24 25 25 25 24 24 24 23 22 20 18 16 14 13 12 13 14 16 18 18 19 20 21 22 22 22 21 21 21 20 20 20 19 19 19 19 18 19 18 18 18 18 18 17 17 16 16 15 15 14
32 32 31 32 33 33 35 38 41 41 40 37 34 31 29 28 30 32 33 34 35 35 36 37 37 36 34 31 29 28 27 27 26 25 24 23 24 25 26 27 26 26 26 25 24 24 22 21 20 18 16 14 14 14 14 14 14 15 16 17 18 19 20 21 21 22 22 22 21 21 20 19 19 19 19 19 18 18 17 17 17 16 16 15 14 13
29 32 34 35 34 32 33 37 41 41 39 36 34 32 29 29 30 32 34 35 36 37 38 39 38 36 34 32 30 29 28 28 27 26 24 23 23 24 26 27 28 28 27 26 26 26 25 24 23 22 21 19 18 16 16 16 15 15 16 16 17 19 20 21 22 23 24 24 23 23 22 21 20 19 19 19 18 18 17 17 16 16 15 14 13 13
23 27 31 33 33 30 29 33 38 40 38 35 33 32 31 30 31 32 34 36 38 40 41 42 40 36 33 32 31 30 30 30 29 27 26 25 24 24 25 27 29 29 29 28 28 28 27 26 25 25 24 23 22 21 20 19 18 18 18 19 19 20 22 23 24 24 24 24 24 23 22 22 21 20 19 18 18 17 17 16 16 15 14 13 13 12
14 18 22 26 29 29 28 30 33 37 38 35 32 29 29 30 31 32 34 37 40 42 43 43 41 38 37 35 33 32 32 32 32 30 29 28 26 25 25 26 28 29 30 30 30 29 28 28 27 26 26 25 25 24 24 23 22 21 20 20 21 22 23 24 25 24 23 22 22 21 21 21 21 20 19 19 18 17 17 16 15 14 13 12 12 11
5 8 12 15 21 25 28 30 32 35 38 38 35 30 28 29 30 32 34 39 43 45 44 41 39 39 38 37 35 34 34 34 34 34 32 30 28 26 25 25 27 29 30 31 30 30 29 28 28 27 27 26 26 26 26 26 26 25 24 23 23 24 24 25 24 23 21 19 19 19 19 19 20 19 19 19 18 18 17 16 15 14 13 12 12 11
9 6 9 9 12 18 23 28 32 35 39 40 38 34 29 27 28 31 34 39 44 46 44 41 39 38 39 39 38 36 35 35 35 36 34 32 30 27 25 24 25 27 28 29 30 30 29 29 28 28 27 27 27 27 27 27 27 27 27 26 26 26 26 25 24 23 21 19 19 19 19 20 20 19 19 19 18 18 17 16 15 14 13 12 11 10
18 14 11 9 9 13 18 26 32 36 39 41 40 36 30 25 25 29 33 38 42 44 44 40 38 39 40 41 39 37 36 37 38 38 37 34 32 30 28 26 26 26 27 27 27 28 29 29 29 28 27 27 27 27 27 27 27 28 28 28 27 27 26 25 24 23 22 21 21 21 21 21 21 20 20 19 19 18 17 16 15 14 13 12 11 10
23 20 15 12 10 9 13 23 30 36 39 39 38 35 30 25 25 28 32 37 41 43 42 39 38 40 42 42 41 39 38 39 41 42 40 37 34 32 31 30 29 29 28 26 26 26 27 28 28 27 27 26 26 26 27 27 27 27 27 27 26 26 25 24 24 23 22 22 22 21 21 21 20 20 19 18 18 17 17 16 15 14 13 12 11 10
23 22 19 16 12 8 10 19 28 35 37 36 35 33 30 25 25 28 31 36 40 42 41 40 40 42 43 43 42 40 39 40 42 43 42 38 36 34 33 33 32 32 30 28 27 26 27 27 28 28 27 27 26 26 27 27 27 27 26 26 25 25 24 24 23 23 22 22 21 20 20 19 18 18 17 16 16 15 15 15 14 14 13 12 11 10
19 20 20 19 17 12 10 17 27 33 34 33 33 32 29 26 25 27 32 37 40 41 41 42 42 42 42 41 41 40 40 40 42 43 43 40 38 36 35 35 34 33 31 29 28 27 27 27 28 28 28 28 27 27 27 27 27 26 26 26 25 24 24 23 23 22 22 21 20 20 19 18 17 17 16 15 14 14 13 13 12 12 12 11 11 10
15 16 16 17 17 15 13 17 25 30 31 31 31 30 28 24 23 27 32 37 39 40 41 42 42 41 41 40 40 39 40 40 41 43 44 42 39 37 36 35 35 34 31 30 29 28 27 27 27 27 27 28 28 28 28 28 27 27 26 26 25 24 24 23 23 22 21 21 20 19 19 18 17 16 15 15 14 13 12 12 11 11 10 10 10 10
13 12 11 12 14 15 17 20 24 28 30 31 31 29 26 21 20 25 31 35 37 39 41 43 43 42 40 39 39 38 38 39 40 41 42 42 39 36 35 35 36 35 32 30 29 28 27 26 25 25 25 26 27 28 28 28 28 27 26 25 25 24 23 23 22 22 21 20 20 19 18 17 17 16 15 14 13 13 12 11 11 10 10 10 9 9
14 12 10 10 12 15 18 21 24 26 28 30 31 29 26 20 18 22 29 34 37 39 41 43 44 42 41 39 38 37 37 38 38 39 40 40 39 37 35 35 36 35 34 31 29 29 29 28 26 25 24 24 25 26 27 27 27 27 26 25 25 24 24 23 23 22 21 21 20 19 18 17 17 16 15 14 14 13 12 12 11 10 10 10 9 9
16 15 13 12 12 14 17 21 23 24 26 27 28 29 27 23 21 21 25 31 35 37 40 42 43 43 42 40 38 36 36 36 36 36 37 38 38 38 36 36 36 36 35 33 31 31 30 30 29 28 27 26 25 25 26 27 27 27 26 26 25 25 24 24 23 23 22 21 20 20 19 18 17 16 16 15 14 13 13 12 11 11 10 10 10 9
16 17 17 15 14 13 15 18 20 22 23 24 26 27 28 27 26 24 24 27 30 34 37 40 41 42 42 40 38 36 35 34 34 35 35 37 38 38 38 38 37 37 36 35 33 32 31 31 31 31 30 29 27 27 27 27 27 28 28 27 27 26 26 25 24 24 23 22 22 21 20 19 19 18 17 16 15 14 14 13 12 11 11 11 10 10
17 18 19 18 16 14 13 14 17 18 19 20 22 25 28 30 30 29 27 27 28 31 35 38 40 41 41 39 36 34 32 33 33 34 35 36 38 39 39 38 38 37 38 37 35 33 32 32 33 33 33 32 31 30 30 29 29 29 29 29 28 28 27 27 26 25 25 24 23 22 22 21 20 19 18 17 16 15 15 14 13 12 12 12 11 11
19 20 21 21 19 16 13 12 13 15 16 16 17 20 24 28 31 31 30 29 29 31 33 36 38 39 39 38 35 31 29 31 34 35 35 36 38 39 40 39 38 37 37 37 36 34 32 32 33 34 34 34 34 33 32 32 32 32 32 31 31 30 29 29 28 27 26 25 25 24 23 22 21 20 19 18 17 17 16 15 14 14 13 13 12 12
20 22 23 23 22 20 17 15 13 14 14 14 15 17 20 24 27 29 30 29 30 32 33 35 36 37 38 38 36 33 31 33 35 35 35 37 38 38 39 39 38 37 36 36 36 35 33 33 33 34 35 36 36 35 35 34 34 34 33 33 33 32 31 30 30 29 28 27 26 25 24 23 22 21 20 19 18 18 17 16 15 15 14 14 13 13
20 22 23 24 24 24 23 20 18 17 16 16 16 17 19 21 23 25 27 28 29 31 33 34 34 34 35 36 36 36 34 35 35 36 36 37 38 39 39 39 38 37 35 34 34 35 37 37 37 36 36 36 37 37 36 36 36 35 35 35 34 33 33 32 31 30 29 28 27 26 25 24 23 22 21 20 20 19 18 17 16 16 15 15 14 14
19 20 22 23 25 26 26 26 24 23 22 21 20 20 20 21 22 24 26 27 28 29 31 32 32 32 32 33 34 35 34 34 35 36 36 37 38 39 39 39 38 37 35 33 32 34 37 39 39 38 36 36 36 36 36 36 37 37 36 36 35 34 33 32 31 31 29 28 27 26 26 25 24 23 23 22 21 20 20 19 18 17 16 15 15 14
19 20 21 22 24 25 27 28 28 28 27 26 24 22 21 21 22 24 25 27 28 29 29 30 30 30 30 31 33 33 32 32 33 34 35 37 38 39 39 39 38 38 36 34 33 33 35 37 38 38 37 36 35 35 35 36 37 37 37 36 35 35 34 33 32 31 29 28 27 27 26 26 25 25 24 23 23 22 21 20 19 18 17 16 16 15
21 21 22 22 23 24 25 27 28 29 29 29 27 25 23 21 21 21 23 25 27 29 30 30 30 30 30 31 32 32 31 31 32 32 34 36 37 38 39 39 38 38 37 36 35 35 36 37 37 37 37 36 35 34 34 35 36 36 35 35 35 34 34 33 32 31 30 28 28 27 27 26 26 25 25 24 23 22 22 21 20 19 18 17 17 16
23 24 24 23 23 24 24 25 26 27 28 29 28 27 26 24 22 20 20 21 24 26 28 30 30 30 30 30 30 31 30 30 31 32 33 35 36 37 39 39 38 37 37 38 37 37 38 39 38 37 36 37 36 35 34 34 34 34 33 33 33 33 32 32 31 31 29 28 28 27 27 26 26 25 24 24 23 22 21 21 20 19 18 18 17 17
25 26 26 25 24 24 24 24 24 25 25 26 26 26 26 25 23 22 20 19 20 21 24 26 28 29 29 29 30 30 30 30 31 31 32 33 35 36 39 39 38 37 37 37 38 39 39 40 40 38 36 36 36 36 35 34 33 33 33 32 32 31 31 31 31 30 29 28 28 27 27 27 26 25 24 23 22 22 21 21 20 19 19 18 18 17
26 26 26 26 26 25 25 24 24 23 22 22 22 22 23 23 23 22 21 20 19 18 19 20 22 24 26 27 28 29 30 31 31 32 32 32 33 35 37 38 38 37 36 36 36 37 38 40 40 39 37 36 36 36 35 35 34 34 34 33 31 30 30 30 29 29 29 28 28 27 27 27 26 25 23 23 22 22 22 21 20 20 19 18 18 17
25 26 26 26 25 25 24 24 22 21 20 19 18 18 19 20 21 21 20 20 19 18 17 16 17 18 21 23 25 28 30 31 32 32 32 33 34 35 36 38 38 37 36 35 34 35 36 37 38 38 37 37 36 35 34 34 34 34 33 31 30 29 28 28 28 28 28 28 28 27 27 27 26 25 24 23 23 23 23 22 21 20 19 18 18 17
24 25 25 24 24 23 23 22 21 20 18 17 16 16 16 17 18 19 19 19 19 19 18 16 15 15 16 18 21 24 27 29 29 30 31 32 34 36 37 38 37 36 35 35 34 34 34 35 35 35 35 36 36 35 35 34 33 33 31 30 30 29 29 28 28 29 29 29 28 28 27 27 26 25 25 24 24 23 23 21 20 20 19 19 18 18
23 23 23 23 22 22 21 20 20 19 18 17 16 16 16 16 16 17 17 17 18 18 18 17 17 16 16 16 17 20 22 24 25 26 27 29 31 34 35 37 36 36 36 35 35 34 34 34 34 35 35 35 35 35 35 34 33 31 30 30 30 30 30 29 29 29 29 28 28 28 27 27 26 25 24 24 23 23 22 21 20 19 19 18 18 18
21 21 21 20 20 20 19 19 19 18 18 18 18 18 17 16 16 16 15 16 16 16 17 17 17 18 19 19 18 17 18 20 21 22 22 23 25 28 30 32 33 34 35 35 35 35 34 34 34 34 34 34 35 35 34 33 31 30 29 29 29 29 28 28 29 29 28 28 28 27 27 26 25 24 23 23 22 22 21 20 20 19 19 18 18 18
18 18 18 18 18 18 18 18 18 19 19 19 19 19 18 17 16 16 15 15 14 14 15 15 15 17 19 20 20 19 18 17 18 18 19 20 21 22 24 26 28 29 31 32 33 34 34 34 33 33 33 33 33 34 34 33 31 30 29 29 28 28 27 28 27 27 27 27 26 26 25 24 23 22 22 22 22 21 21 20 19 19 19 19 18 19
15 15 16 16 16 17 17 18 18 18 18 18 18 18 18 17 17 16 16 15 15 14 14 13 13 15 17 19 20 20 19 18 17 17 17 18 18 19 21 21 22 23 24 27 29 30 30 30 30 30 31 31 31 31 32 32 31 30 29 29 29 28 28 27 26 25 25 25 24 23 22 21 21 20 20 20 20 20 20 20 19 19 19 19 19 19
14 14 14 14 15 16 17 17 17 17 17 17 17 17 17 16 16 16 16 16 16 15 14 12 12 13 16 17 17 18 18 18 18 17 17 16 16 17 18 18 19 19 19 21 23 24 25 26 26 26 26 26 26 26 27 28 29 28 27 27 27 27 26 24 23 23 23 22 21 20 19 19 19 19 19 19 19 20 20 20 19 19 19 19 19 20
13 13 13 13 14 14 14 15 15 15 15 16 16 16 15 15 15 15 16 16 16 15 14 13 12 14 15 15 15 15 16 16 17 17 17 17 16 16 16 16 16 16 16 17 18 19 21 21 21 21 21 21 21 21 22 23 23 24 23 23 23 22 22 21 21 21 21 20 19 18 17 17 18 18 18 18 18 19 19 20 20 20 19 19 20 20
13 13 12 12 12 12 13 13 13 14 14 14 14 14 14 14 14 14 14 15 15 15 15 14 14 15 15 15 15 14 14 14 14 15 15 16 16 16 15 15 15 15 14 15 15 16 17 18 18 18 18 18 19 19 19 19 19 20 20 20 19 19 19 19 19 20 19 19 18 17 17 16 17 17 17 17 17 18 19 19 20 20 20 20 20 21
13 13 12 12 12 12 12 12 12 12 13 13 13 13 13 13 12 13 13 13 14 14 15 15 15 15 15 15 15 14 13 12 12 12 13 13 14 14 14 15 15 15 15 15 14 15 15 15 16 16 16 15 16 17 18 18 17 17 17 17 17 17 17 18 18 18 18 18 17 17 16 17 17 17 16 16 17 18 18 19 20 20 21 21 22 22
13 13 12 12 11 12 12 11 12 12 12 12 12 12 12 11 11 11 11 12 12 13 14 14 14 15 15 15 14 14 13 12 12 12 11 11 11 11 12 12 13 13 14 14 14 14 14 14 14 14 14 14 13 14 14 15 15 16 16 16 16 16 16 16 17 17 17 17 16 16 15 16 16 16 16 16 17 17 18 19 19 21 22 23 23 23
13 13 12 12 12 12 11 11 11 11 11 11 11 11 10 10 10 10 10 11 11 12 12 12 13 13 14 14 13 13 13 12 12 12 12 11 10 10 10 10 10 11 11 12 12 12 13 13 13 12 12 12 12 12 12 12 12 13 13 14 15 15 15 15 16 16 16 16 15 15 14 15 15 15 15 16 16 17 18 18 19 20 22 23 24 24
Wind_Direction
256 259 259 257 258 257 243 225 215 213 215 221 225 227 228 229 232 235 236 231 224 220 222 230 236 238 237 235 231 228 226 226 226 227 228 228 228 227 224 221 220 220 221 221 220 219 216 216 218 220 221 220 219 219 219 220 221 221 220 218 214 209 203 196 190 186 185 184 184 184 183 182 181 181 182 183 184 186 191 196 198 199 199 198 197 196
255 257 257 255 255 258 255 233 214 209 212 217 221 223 224 225 227 229 230 222 212 205 205 211 218 224 227 228 228 227 226 226 227 227 227 227 227 225 223 220 218 218 218 217 214 211 208 208 211 215 217 217 216 216 216 217 217 216 214 210 205 200 195 189 189 190 188 184 183 183 181 180 180 181 183 183 182 182 187 193 197 198 197 197 196 196
252 255 256 254 253 255 258 247 221 207 208 213 217 219 221 222 223 225 226 217 206 198 196 194 196 200 206 210 213 216 219 222 223 224 224 224 224 223 221 219 218 218 217 214 210 206 204 205 207 209 212 212 212 212 211 211 209 206 202 198 195 192 190 188 189 190 187 183 181 181 180 179 181 183 183 181 179 178 183 191 196 197 196 196 196 196
250 252 254 254 252 252 254 252 234 212 206 211 214 216 217 218 219 221 221 212 202 195 193 188 188 190 189 191 194 198 203 208 212 215 216 216 214 213 214 214 214 214 212 210 208 207 207 208 208 207 206 205 205 205 205 203 201 199 198 194 191 190 191 191 189 186 182 179 179 181 181 182 184 185 184 181 178 177 181 189 195 197 196 196 196 196
247 249 251 253 252 250 248 250 242 221 205 208 212 213 211 210 212 215 216 210 200 192 189 187 190 191 186 185 184 184 188 191 196 200 203 202 200 199 201 203 205 205 205 205 206 207 209 210 209 207 203 200 198 199 200 199 199 200 199 197 195 193 192 189 184 180 176 175 176 179 180 181 182 182 182 180 179 179 182 189 195 197 197 196 196 195
244 245 247 250 251 249 246 247 246 232 210 206 208 210 207 204 204 207 210 209 201 190 184 187 190 192 190 187 184 182 183 182 183 186 188 188 188 190 193 196 198 199 199 201 204 206 208 208 207 205 200 195 191 190 192 193 195 195 192 189 187 185 182 177 173 170 170 171 173 175 175 175 175 175 175 176 177 179 182 188 193 195 196 195 194 193
243 243 244 246 248 247 244 245 245 238 218 203 201 204 204 201 200 202 204 205 202 194 183 182 187 191 192 192 190 188 187 183 180 178 177 178 181 185 191 194 195 195 194 196 198 200 201 199 199 200 197 192 189 186 183 185 184 180 175 171 168 165 163 162 162 163 165 167 168 169 169 169 169 170 171 172 174 176 180 184 188 191 192 191 190 189
241 241 241 243 244 244 243 242 243 240 227 207 197 197 198 197 196 196 197 199 199 197 188 179 176 179 183 188 189 189 188 184 180 176 175 174 174 177 182 186 189 189 190 193 194 193 191 190 191 193 194 191 188 184 179 176 171 164 158 154 152 152 153 155 157 159 160 161 161 161 161 162 164 166 168 170 172 174 176 180 183 186 187 186 186 185
238 239 240 240 241 241 239 239 239 239 232 217 202 196 196 195 192 189 187 189 192 192 188 179 171 168 169 173 176 178 179 176 173 172 172 169 166 165 167 171 174 177 181 186 191 191 186 186 185 184 186 183 180 176 172 167 161 156 152 150 150 152 154 157 158 158 157 156 156 156 156 157 159 161 163 165 167 169 172 175 179 181 182 182 182 181
235 236 238 239 239 238 236 235 236 237 235 224 209 200 199 196 191 185 180 179 181 184 183 178 172 166 163 160 160 161 161 160 160 160 161 159 156 154 153 156 159 162 167 173 178 180 180 180 177 174 172 168 165 163 162 160 158 157 155 156 157 159 160 161 161 160 158 158 158 158 157 157 158 158 159 161 162 165 168 172 175 178 179 179 179 179
234 234 236 237 238 236 234 232 232 234 235 230 217 204 198 197 192 185 178 175 174 175 177 176 173 168 163 159 157 158 157 156 157 157 156 154 152 150 150 150 149 148 149 153 159 166 171 172 170 167 163 158 156 156 157 158 160 160 162 164 165 166 166 166 165 164 163 163 164 163 161 160 159 158 158 159 161 164 168 172 176 178 179 180 180 180
236 234 234 235 235 234 232 230 229 230 231 231 224 212 197 192 190 186 179 175 171 170 170 171 171 169 164 161 161 161 161 161 160 160 160 159 158 157 156 154 152 149 146 143 145 151 159 165 167 167 163 161 159 159 160 161 163 164 166 168 169 170 170 169 169 168 167 167 166 164 161 158 155 154 154 156 159 163 169 175 179 182 183 183 184 184
239 236 235 234 233 231 229 227 226 226 227 229 227 220 206 191 185 182 178 174 171 168 167 164 163 164 164 163 163 164 164 163 162 162 163 163 164 164 162 160 158 156 154 152 150 151 153 157 162 165 167 169 168 168 168 168 168 168 169 169 170 169 168 166 165 164 163 162 161 158 155 152 150 149 150 153 158 164 171 177 182 186 188 189 189 190
238 236 235 232 230 227 224 223 222 223 225 227 227 222 212 196 185 179 177 172 169 167 165 160 158 159 161 162 164 165 164 163 162 161 161 163 165 166 165 164 161 160 158 157 156 156 157 158 160 162 165 168 169 170 171 171 172 172 171 170 167 164 162 159 156 154 153 153 152 151 150 149 149 150 152 157 163 169 176 181 186 190 192 193 193 193
234 233 231 229 226 222 219 218 219 221 223 225 224 219 211 201 189 179 174 168 165 163 160 158 157 157 158 160 163 164 163 162 160 159 158 160 162 164 165 164 162 161 160 158 157 158 160 162 163 163 164 163 162 160 160 160 163 165 166 165 163 159 156 153 151 151 151 151 151 150 150 152 154 156 159 164 170 175 181 185 189 191 192 192 191 191
232 230 229 228 224 219 215 215 216 218 220 221 219 213 208 202 192 182 174 168 163 160 157 155 153 153 155 159 161 163 163 162 159 157 156 155 158 161 163 162 161 161 160 158 157 159 162 164 164 164 163 162 160 156 154 152 151 152 154 156 156 155 154 152 152 152 153 153 153 153 154 157 160 163 166 170 174 179 183 186 188 189 188 187 186 185
229 227 228 227 224 218 212 211 213 216 217 216 212 208 205 201 194 185 175 167 161 158 156 155 151 149 151 154 159 162 163 161 158 156 154 153 155 159 162 161 160 160 160 159 159 160 162 163 163 163 162 160 158 155 153 152 152 152 153 153 154 154 153 153 153 153 154 154 155 157 159 162 166 169 172 175 178 182 184 185 185 185 184 183 181 180
217 220 223 224 223 220 215 209 208 209 211 209 207 205 204 203 198 188 177 167 160 157 155 154 152 151 151 152 156 161 163 160 157 154 153 152 153 156 159 161 160 159 160 159 159 160 161 161 161 160 158 157 155 154 153 153 153 153 154 155 154 154 154 154 154 155 156 157 158 160 162 165 169 172 175 178 181 184 185 185 184 183 182 181 180 180
171 199 204 210 214 215 213 209 205 202 202 202 202 204 208 210 203 191 177 167 161 157 154 153 152 153 153 152 155 159 163 160 157 154 152 150 150 153 156 160 161 160 158 159 159 159 159 159 157 156 154 154 154 154 153 153 153 154 154 155 155 155 155 156 157 159 161 162 162 162 164 167 170 173 175 178 181 183 184 183 183 182 182 181 181 181
83 126 164 180 194 199 201 201 200 197 196 197 200 204 210 212 204 190 176 166 161 157 154 152 151 152 152 151 152 157 162 162 159 155 151 147 147 149 153 156 158 157 155 156 157 158 158 157 155 153 153 153 153 153 154 154 155 155 156 157 157 157 158 159 161 164 165 166 166 166 167 170 172 174 176 177 179 181 182 181 181 181 182 182 184 185
64 78 108 130 156 173 183 189 191 192 193 195 199 203 209 208 198 186 176 166 160 155 153 151 150 151 151 150 150 155 162 163 160 155 151 147 146 148 151 153 153 152 149 150 154 158 159 157 154 153 154 154 154 155 155 156 157 158 159 160 160 161 162 163 165 167 168 168 168 169 170 172 173 174 175 176 177 178 180 181 182 183 184 186 188 190
55 60 77 101 123 147 168 178 183 188 191 194 196 199 201 196 188 181 174 164 158 155 152 150 150 150 151 150 151 155 161 164 162 157 152 147 146 148 151 152 151 148 145 147 153 159 161 159 157 156 158 158 159 159 159 160 161 162 163 164 164 165 166 167 168 169 169 170 170 171 171 173 173 173 173 174 175 176 177 179 180 183 187 190 193 197
52 54 60 68 78 101 145 166 176 184 189 191 193 194 194 186 179 173 167 161 158 156 154 152 152 152 152 152 153 156 161 165 165 162 155 149 147 149 152 154 152 149 146 149 154 159 162 161 160 161 162 164 164 164 164 164 165 166 167 168 168 169 170 170 171 171 172 172 173 173 174 174 174 174 174 175 175 176 177 178 181 184 188 192 197 203
48 50 52 54 55 65 107 151 167 176 182 184 186 187 187 181 173 165 160 160 159 158 156 155 153 153 153 153 154 157 160 164 166 164 158 152 150 152 155 157 155 151 148 150 155 159 162 162 162 163 165 167 168 168 168 168 169 170 171 172 172 173 174 174 174 175 175 176 176 177 178 178 178 177 177 178 178 180 181 183 185 188 191 195 201 207
47 48 50 52 54 62 90 135 156 165 171 175 178 181 182 179 171 164 160 159 158 158 157 156 154 153 153 154 155 158 161 164 167 166 161 154 151 153 157 159 157 152 147 150 156 160 161 161 161 163 165 168 170 170 171 171 172 174 175 176 176 177 178 178 179 179 180 181 181 181 182 182 182 182 182 182 183 184 186 188 191 195 198 203 207 213
53 54 56 61 67 79 99 127 145 156 162 167 172 176 178 175 167 159 155 155 156 157 156 156 155 154 155 156 157 159 162 165 168 169 164 156 152 152 157 160 159 154 149 150 155 159 158 158 159 162 165 168 170 172 174 175 176 178 179 180 181 181 182 183 184 184 185 185 186 187 187 187 187 187 188 188 189 190 192 194 198 202 207 211 216 222
57 60 65 72 81 92 106 123 136 146 154 161 167 172 175 172 165 156 149 148 151 155 156 155 153 154 156 158 160 161 163 165 167 169 166 160 155 154 158 162 161 158 153 151 153 156 155 154 156 159 163 167 170 173 176 178 179 181 183 184 185 185 186 187 188 189 190 191 191 192 192 193 193 194 194 195 195 197 199 202 206 210 215 220 226 231
51 54 59 67 79 94 107 119 128 136 143 151 159 166 170 170 167 160 150 145 147 152 155 155 154 153 155 157 160 162 163 164 165 166 166 162 158 157 161 164 165 162 156 152 152 155 156 155 155 158 160 165 169 173 176 179 181 183 186 188 189 189 190 191 192 193 194 195 196 196 197 198 199 199 200 201 202 204 206 209 214 218 222 228 233 239
42 45 49 54 66 84 101 114 122 128 132 140 148 155 161 164 165 164 158 151 148 150 155 158 158 157 157 157 158 160 161 163 164 166 168 165 161 160 164 166 167 165 159 152 151 153 155 156 157 158 159 164 168 172 175 178 181 185 188 190 192 192 193 195 196 197 198 199 199 200 201 202 203 204 205 206 208 210 212 215 219 223 228 233 239 244
38 40 42 45 52 65 87 105 116 123 128 134 139 142 147 153 156 158 159 156 152 152 156 160 162 161 160 158 156 155 157 160 163 167 171 167 163 162 165 167 168 168 163 155 149 147 149 154 157 158 160 164 169 173 176 180 184 187 190 192 194 195 196 197 198 199 200 201 202 203 204 205 206 207 208 210 212 214 216 218 222 226 230 235 240 246
40 43 45 46 49 56 71 90 107 118 127 133 135 136 137 141 145 150 154 155 154 153 155 159 161 162 161 159 153 149 149 154 161 168 173 170 166 165 166 166 167 169 170 164 154 145 143 149 155 160 163 166 170 173 177 181 186 189 192 194 195 196 198 199 200 201 202 203 205 206 207 207 208 209 210 212 214 216 218 221 223 227 231 236 240 246
46 50 52 53 55 58 66 79 95 109 119 127 133 136 134 135 138 142 147 151 152 153 153 154 156 158 160 160 156 152 151 153 159 167 173 169 167 168 170 168 167 168 173 172 164 155 149 149 154 160 164 167 169 173 177 181 186 190 193 195 195 197 199 200 201 203 204 205 206 207 208 209 210 211 212 214 217 219 221 223 225 228 231 236 240 246
51 54 58 60 62 64 67 72 80 91 102 111 121 129 133 135 137 141 145 148 151 152 152 151 152 154 157 160 159 158 156 156 160 165 170 167 165 167 171 170 168 168 170 171 169 164 160 157 158 161 164 167 169 172 176 180 185 189 193 195 197 198 200 202 203 205 206 206 207 208 209 210 211 213 214 216 218 221 223 225 227 230 233 237 242 248
52 56 58 61 64 66 68 70 73 77 83 91 101 112 122 131 137 142 146 149 152 154 156 155 154 154 155 157 158 158 158 158 161 163 166 165 164 165 169 170 170 170 171 170 168 167 164 164 163 163 165 168 171 174 176 180 184 188 193 196 198 200 202 204 205 207 208 209 209 210 211 212 213 215 217 219 221 223 225 227 229 233 236 240 245 251
52 54 56 58 61 64 67 69 70 71 73 76 82 91 103 116 127 135 142 146 150 154 157 159 159 159 159 158 157 156 157 159 161 163 164 164 165 166 168 169 171 173 174 174 172 169 166 166 167 167 167 168 172 176 180 182 185 189 192 196 199 201 203 205 206 208 209 210 211 213 214 216 217 218 220 221 223 225 227 229 232 235 239 243 248 253
50 52 53 54 56 58 61 64 66 68 69 69 71 75 82 92 105 118 129 137 142 147 151 155 158 161 162 163 161 159 159 161 162 163 164 166 168 169 168 169 172 176 177 178 178 176 172 170 170 171 171 171 172 177 182 187 189 191 193 196 198 201 203 205 206 208 209 210 212 214 217 219 220 221 223 224 225 227 229 231 234 238 242 246 250 254
49 50 51 51 52 54 56 58 61 63 65 66 67 69 71 75 83 94 108 120 130 137 143 148 153 156 159 163 164 163 163 164 165 166 166 169 171 172 171 171 173 177 180 180 181 181 179 174 172 173 173 174 174 177 182 188 192 194 195 197 198 200 202 205 207 208 210 211 213 216 218 220 222 223 224 226 228 230 232 235 239 242 246 249 253 256
49 49 50 50 51 52 53 54 55 57 59 61 64 66 67 69 73 79 88 99 113 124 133 140 146 151 155 160 162 164 165 167 168 169 169 171 173 174 174 173 174 177 181 183 185 185 184 179 175 173 173 176 179 181 184 189 192 194 197 199 200 201 202 205 208 210 211 213 216 218 220 221 222 224 226 228 231 234 237 241 244 248 251 253 256 258
49 49 49 50 50 50 51 51 52 53 55 58 61 65 67 69 71 74 78 85 94 106 119 129 138 145 152 157 161 164 165 167 168 170 171 173 175 176 175 174 174 176 180 183 186 187 187 184 181 179 178 179 181 184 188 191 193 195 197 199 200 201 203 205 208 211 213 215 217 219 221 222 223 224 227 231 235 238 242 245 248 251 253 255 258 260
51 51 51 50 50 50 51 51 51 51 53 57 62 67 70 72 72 74 76 80 85 93 103 116 128 139 148 155 159 162 164 166 167 168 170 173 175 176 176 175 175 176 178 180 182 183 184 184 185 186 187 186 186 187 189 191 194 197 198 197 197 200 204 206 209 212 214 216 217 219 221 223 224 227 230 233 237 241 245 247 249 251 253 256 258 260
54 54 54 52 51 51 51 52 52 52 54 57 62 67 71 73 75 76 78 81 84 88 94 103 114 128 140 150 156 160 163 163 164 166 168 171 173 175 176 176 176 177 178 179 180 181 182 182 184 187 190 191 192 192 192 193 196 198 199 198 199 202 206 208 210 212 214 216 218 219 221 224 227 229 232 236 240 243 246 248 250 252 254 257 259 261
57 56 55 54 53 53 53 53 54 54 55 57 59 62 66 70 72 75 78 81 84 87 92 98 106 115 125 135 146 154 158 160 162 164 166 169 171 172 173 173 174 176 178 179 179 180 182 184 186 188 191 193 193 192 191 193 196 198 200 201 204 206 208 209 211 213 214 216 218 220 222 225 228 231 234 238 241 244 247 249 251 253 256 259 261 264
57 57 57 58 57 56 56 55 55 55 55 56 57 59 62 66 69 71 74 77 80 83 87 93 101 109 116 122 130 139 148 154 158 161 163 166 169 170 170 170 170 173 175 177 177 179 183 186 187 189 192 194 194 192 190 191 194 197 201 204 207 207 206 209 212 215 216 218 220 221 223 226 229 232 236 239 242 245 247 250 253 256 258 261 264 266
56 57 58 60 60 60 59 58 56 56 56 56 57 58 59 62 66 68 70 73 76 80 83 87 96 106 111 114 117 123 132 142 151 156 159 163 167 170 171 170 169 170 173 175 174 175 178 181 183 185 188 191 192 192 191 191 193 196 200 204 207 208 209 211 214 216 217 220 221 223 225 227 230 234 237 241 244 246 249 252 255 258 261 264 266 268
54 55 56 58 59 59 59 58 58 57 57 58 58 58 59 61 64 66 68 70 73 75 78 83 93 101 102 104 108 113 120 128 137 146 151 157 162 168 173 173 173 173 174 175 175 174 174 174 176 179 183 186 188 190 190 192 193 195 198 203 206 208 211 214 216 217 219 221 222 224 227 229 233 236 240 244 246 249 252 255 258 261 263 266 268 269
50 52 53 54 55 56 57 58 59 59 59 60 60 60 60 61 63 66 68 69 70 72 73 79 87 93 94 96 101 107 114 120 126 133 139 145 152 160 167 172 176 177 177 177 177 177 177 175 174 176 179 182 185 188 191 194 195 197 199 203 206 208 211 213 216 219 222 223 224 227 230 233 236 240 243 246 250 253 256 259 261 264 266 268 269 270
44 46 48 50 51 53 55 57 58 59 59 60 60 60 61 62 64 67 69 70 71 72 74 77 81 84 87 89 92 98 105 113 119 124 130 135 140 147 154 161 168 172 176 178 178 179 179 178 177 178 179 181 182 185 190 195 198 200 202 206 209 211 213 216 220 224 227 228 229 231 233 236 240 243 246 249 253 257 260 263 265 266 268 270 271 272
39 41 44 46 48 50 52 53 54 55 57 58 59 60 61 62 64 67 69 71 73 75 76 77 78 80 82 82 83 87 95 103 111 118 124 128 132 137 142 148 152 157 163 168 172 175 177 177 176 176 179 181 182 184 187 193 198 202 206 209 212 214 217 221 225 228 231 232 233 234 236 239 242 245 248 252 256 259 262 265 267 269 270 270 271 272
37 38 40 41 43 46 47 48 50 51 53 54 56 57 59 61 63 65 68 71 74 76 78 78 79 80 81 80 80 82 86 91 99 108 115 121 126 131 136 140 144 148 151 155 159 164 168 171 172 173 173 176 179 183 186 190 195 200 204 208 211 215 218 222 226 230 232 233 234 236 237 240 243 246 249 252 256 259 262 266 269 270 270 270 270 271
37 37 38 39 40 42 44 45 46 47 49 50 51 53 56 59 62 65 68 71 74 76 77 79 81 82 83 83 83 84 84 87 91 97 104 111 118 124 129 134 139 144 148 151 153 156 160 162 166 169 172 172 174 178 182 188 194 198 201 206 211 215 218 222 226 230 233 234 236 238 240 243 245 248 250 252 255 258 262 265 268 270 270 270 270 271
38 38 38 39 39 41 42 43 44 45 46 47 48 50 53 56 60 64 68 71 74 76 77 80 82 83 84 86 87 88 88 90 92 95 98 102 108 114 120 126 132 139 145 149 152 156 159 160 161 165 171 177 180 179 177 182 191 199 204 209 213 217 220 225 229 234 236 238 240 242 244 247 249 251 253 253 254 258 261 263 266 268 269 270 270 271